Theta_e
316 311 310 308 300 296 292 295 297 297 298 301 309 304 307 307 304 299 327 334 337 341 346 346 346 346 345 343 343 345 344 345 345 343 340 337 338 338 340 340 341 341 341 338 337 337 337 338 338
313 311 308 302 296 291 291 295 295 298 302 305 305 308 308 306 317 322 329 336 340 343 345 345 343 345 344 343 344 344 344 343 345 342 338 338 338 337 339 338 338 340 339 339 338 336 335 336 337
311 307 305 297 292 292 292 294 296 300 305 302 305 308 309 310 319 326 333 338 342 343 345 343 343 345 344 344 344 343 343 345 345 341 338 337 337 337 337 337 339 340 338 339 338 338 337 337 337
307 303 299 295 292 295 295 296 298 299 300 301 306 305 311 318 326 330 337 340 341 343 343 342 344 345 345 344 343 343 344 345 345 341 337 337 336 336 337 337 339 340 339 338 339 338 337 338 337
302 299 294 292 293 295 295 298 298 298 299 302 303 303 310 320 328 335 337 339 338 341 342 342 342 344 344 344 343 343 343 344 343 340 337 336 335 335 337 334 334 338 338 337 337 336 336 336 335
299 297 291 290 292 295 298 298 298 298 299 301 305 306 312 324 330 334 338 338 339 339 341 342 337 339 341 342 342 342 342 343 342 340 336 335 334 334 335 333 333 337 336 335 334 334 335 334 333
297 293 291 291 291 295 298 298 297 297 298 300 308 304 309 319 330 335 337 338 339 339 340 342 341 338 335 337 338 339 340 340 340 338 337 335 334 335 335 331 332 335 332 334 335 334 332 332 331
296 295 291 291 291 294 297 297 299 298 298 304 308 301 305 317 331 333 337 336 335 337 339 340 340 340 340 340 332 334 336 336 336 335 331 329 330 330 331 329 331 332 332 333 332 331 331 330 328
300 292 289 291 292 294 295 297 297 300 299 300 306 305 309 324 330 331 329 330 331 334 338 339 338 338 337 337 332 330 330 331 330 328 325 323 327 327 328 327 329 331 330 330 329 328 327 325 324
296 291 291 294 294 293 295 296 297 298 298 299 303 308 320 326 328 326 326 326 328 330 333 337 338 336 335 333 333 333 332 332 330 327 325 324 324 326 327 324 325 326 327 327 324 321 318 316 318
295 293 294 293 294 296 295 295 297 297 295 299 300 305 319 323 326 326 326 328 328 330 332 334 336 336 334 333 331 330 330 328 327 325 323 322 322 325 326 325 324 323 317 318 315 313 313 314 315
293 294 293 295 296 295 295 296 295 296 299 299 300 306 318 320 324 326 326 326 328 330 332 333 334 336 334 332 330 329 327 326 324 323 322 321 321 322 322 322 320 319 316 312 311 310 310 310 309
291 292 293 294 294 293 295 293 295 295 298 297 299 308 317 321 324 327 328 326 327 329 332 332 333 335 335 331 330 328 327 325 324 322 321 320 320 320 320 318 317 314 312 310 309 309 308 307 307
294 292 292 294 293 293 292 291 293 293 295 294 300 304 311 319 322 321 323 325 325 329 331 332 332 333 334 332 331 327 326 325 324 322 321 320 320 319 318 315 313 310 310 309 308 308 306 304 305
293 290 292 292 292 293 293 291 292 293 294 294 295 298 305 313 317 320 324 325 327 328 330 332 332 333 332 332 331 330 328 325 323 323 321 320 320 319 316 314 311 309 307 305 304 302 301 301 299
289 289 287 289 293 292 292 287 291 293 292 294 293 293 294 303 312 316 320 322 323 328 328 331 332 331 331 332 332 330 328 327 325 322 322 320 320 319 315 312 310 306 305 303 302 301 299 298 299
287 283 285 288 292 291 290 288 291 293 292 293 293 292 293 294 297 306 314 318 321 325 328 329 332 331 331 331 331 330 328 327 326 324 323 321 319 317 315 313 309 305 303 301 300 299 299 298 297
283 283 284 284 288 289 287 289 291 292 292 293 293 293 293 294 295 298 301 312 317 320 325 329 330 332 331 331 330 330 328 327 325 324 324 322 320 317 315 313 308 304 301 299 298 296 296 297 294
287 284 284 285 289 288 288 288 291 292 292 292 292 293 294 294 298 297 298 299 309 315 319 325 328 330 331 329 327 327 326 326 325 324 324 322 321 318 315 313 308 304 301 300 297 295 294 291 292
285 284 284 287 289 289 287 287 290 291 292 293 294 294 294 295 295 295 296 297 297 306 315 319 325 329 329 330 330 330 328 328 327 325 324 323 321 319 319 314 310 306 305 300 298 294 293 292 294
284 283 283 285 286 285 284 284 286 288 289 291 292 293 294 294 294 295 295 295 295 296 306 315 320 326 329 331 330 320 320 317 320 323 323 323 322 320 318 317 314 309 305 299 298 297 296 290 291
282 287 286 285 284 280 283 278 283 286 287 289 291 291 291 291 292 292 292 293 294 295 296 307 316 322 327 329 329 325 324 321 324 324 325 323 322 321 319 318 314 308 308 305 301 298 299 296 291
285 287 286 285 282 281 281 280 282 284 286 289 290 290 292 294 295 295 295 296 296 298 295 297 308 316 323 326 329 326 325 326 324 323 322 322 321 322 320 318 315 311 308 306 303 299 298 297 298
288 286 284 282 281 277 280 281 279 283 286 287 288 289 290 293 294 295 296 297 299 303 303 300 303 311 318 324 327 326 324 324 316 315 319 317 312 312 315 317 315 313 310 307 303 301 298 298 299
285 283 278 277 276 276 279 279 282 286 287 288 289 289 292 293 294 294 295 296 298 301 306 307 309 311 316 321 324 324 323 320 317 314 316 310 308 306 309 310 311 310 309 308 304 300 298 298 297
283 283 278 273 274 276 280 278 283 287 288 290 291 293 294 293 293 293 294 295 297 298 303 308 310 310 313 314 315 316 316 315 315 313 312 311 310 308 307 306 306 306 307 306 305 301 299 298 296
285 282 284 278 270 275 278 281 286 288 288 290 292 292 293 293 293 294 294 294 295 297 298 304 307 308 309 310 310 311 311 311 309 307 308 308 305 301 303 304 303 303 302 302 301 300 297 296 295
286 288 281 279 270 270 276 277 281 284 287 291 291 291 292 292 292 293 293 294 295 295 297 298 301 304 305 306 307 306 307 306 306 304 303 302 300 299 298 300 300 299 299 299 299 297 295 294 295
284 283 283 283 280 274 271 277 283 286 287 289 291 292 292 292 292 292 293 294 294 295 296 296 297 299 300 301 301 302 301 300 300 300 299 298 296 296 295 294 295 296 296 295 296 295 293 293 293
287 285 285 280 276 277 277 280 287 286 289 291 291 292 292 292 292 292 292 293 294 294 295 295 296 296 297 298 298 298 298 297 297 297 297 295 295 293 293 292 291 292 292 293 292 292 293 291 291
Wind_Speed
4 4 3 6 5 5 0 2 0 3 4 2 5 5 6 2 4 2 4 6 12 14 11 13 12 12 11 11 10 9 12 12 17 17 15 15 16 15 14 16 13 17 19 18 19 19 19 19 18
3 2 5 3 5 3 3 2 6 4 3 7 4 3 2 2 1 2 7 6 14 13 11 12 12 12 12 11 10 9 11 11 16 16 16 15 15 15 14 15 14 17 17 18 18 18 19 19 19
2 4 5 5 3 4 4 4 5 2 5 3 3 2 3 3 1 8 2 12 14 13 11 11 12 12 11 11 10 9 10 9 15 15 15 15 15 14 14 13 13 14 17 17 18 19 19 20 20
2 4 5 5 4 3 2 4 4 6 2 3 3 3 1 2 5 5 12 14 14 11 12 12 12 13 11 10 10 8 10 11 14 14 15 14 14 14 14 13 13 14 19 18 18 19 19 20 20
4 3 5 3 2 2 3 3 6 4 4 1 2 4 1 0 1 10 14 12 14 12 11 11 12 12 11 11 10 8 10 11 14 15 14 13 13 13 14 14 13 14 18 17 18 18 18 18 18
4 3 4 2 2 1 1 5 6 3 3 1 2 5 2 1 6 10 12 13 12 13 10 10 10 10 11 10 9 8 10 11 13 13 13 13 13 13 13 13 12 13 18 17 15 17 17 17 18
6 4 3 4 3 2 5 6 5 5 5 4 4 4 1 2 5 9 11 11 12 11 10 9 9 10 9 9 9 9 10 11 10 12 12 10 11 11 10 13 12 13 15 15 16 16 15 15 16
5 5 3 1 4 2 5 5 3 5 5 2 2 3 3 4 10 8 9 12 11 10 10 10 9 9 9 8 8 8 9 10 10 12 11 9 10 9 9 10 11 13 14 14 15 14 15 16 16
3 6 2 4 5 3 4 4 1 0 5 2 5 4 2 6 14 9 9 9 9 8 10 10 9 9 9 8 7 8 9 10 11 10 10 9 6 7 9 9 12 13 13 13 14 14 14 16 15
5 4 9 5 5 2 5 4 8 4 2 3 2 0 4 11 15 15 13 12 10 10 10 9 10 10 9 7 8 7 7 6 7 7 8 6 7 6 7 8 9 12 11 13 12 12 12 10 6
2 5 5 4 3 5 5 2 2 6 3 7 8 5 7 10 13 15 14 14 14 14 12 10 9 10 10 8 6 4 4 5 5 8 7 7 6 6 5 5 5 5 8 5 6 6 6 8 6
5 2 5 4 3 4 6 6 3 4 4 2 5 6 9 14 16 17 15 12 11 12 14 13 12 10 10 6 7 7 6 5 5 6 8 6 5 6 6 5 6 6 4 6 5 5 7 8 8
3 4 4 2 5 4 4 2 3 7 7 3 4 7 13 13 13 11 8 7 9 12 13 15 12 11 10 10 8 7 7 6 7 7 7 7 7 6 5 5 5 5 5 6 6 6 6 7 7
4 3 4 3 3 2 3 1 0 3 3 3 5 7 8 12 15 6 7 10 11 12 14 14 14 13 11 10 11 8 8 8 8 7 8 8 7 7 6 6 5 5 5 5 6 6 7 6 6
4 4 3 3 2 2 1 4 8 4 2 3 6 6 7 10 6 14 15 13 13 10 12 16 16 13 12 12 10 8 8 8 8 8 10 10 9 9 8 6 5 5 5 7 7 6 6 6 5
5 5 4 1 4 2 3 8 5 2 3 9 7 6 7 7 13 9 9 9 8 10 13 13 13 14 13 12 10 8 8 8 8 8 8 11 10 11 8 6 6 6 6 6 6 6 5 5 4
7 4 2 4 2 2 3 6 5 3 3 5 6 8 7 8 9 12 13 13 12 14 13 14 16 17 15 12 9 9 10 8 7 7 8 12 10 10 8 7 7 9 6 6 6 5 5 6 5
4 3 1 5 2 2 2 10 8 7 4 8 7 7 8 8 14 12 12 13 12 12 13 14 13 16 16 10 8 7 6 7 7 7 8 11 10 12 9 8 9 8 7 6 5 6 5 6 6
6 3 5 2 2 2 5 7 14 6 5 10 9 9 10 11 10 7 8 8 10 10 13 15 15 17 13 11 10 9 10 9 8 8 11 11 11 12 11 7 9 9 10 10 11 6 7 3 6
4 4 2 1 2 3 4 10 13 8 8 9 9 9 11 6 7 5 6 7 9 13 15 15 17 17 17 13 11 9 9 8 8 7 10 11 12 12 12 12 11 11 9 10 12 9 6 4 10
4 7 4 4 1 2 4 8 7 5 4 5 8 10 6 7 11 10 8 7 7 9 12 15 17 16 17 17 10 2 4 3 4 8 9 12 14 15 15 14 11 12 10 11 14 13 13 7 8
5 7 5 5 3 4 2 8 6 6 9 7 11 6 7 7 6 7 7 6 5 8 8 11 13 14 14 15 14 14 11 9 8 8 8 9 13 14 14 15 14 14 12 12 12 11 11 8 8
6 7 7 3 4 2 3 1 8 2 6 11 4 4 1 5 5 6 5 6 5 4 5 7 8 9 11 13 15 14 13 9 5 5 9 8 9 12 13 13 13 12 11 12 12 12 13 8 5
11 8 7 5 3 3 7 7 5 6 8 3 3 0 4 5 4 4 4 4 4 4 3 3 6 6 8 12 14 16 15 10 5 5 7 5 3 4 7 10 10 10 10 11 11 12 12 11 9
3 7 3 2 1 7 3 3 8 7 9 5 5 6 5 4 2 4 6 6 6 7 5 4 5 5 6 9 12 15 13 7 8 6 5 5 4 3 6 5 6 6 7 8 8 10 11 12 11
7 8 8 9 5 3 2 10 9 7 4 4 3 4 5 2 1 4 4 5 5 6 5 5 5 4 4 5 4 4 5 4 4 4 3 3 3 3 3 5 4 5 5 6 8 7 8 9 10
6 7 4 9 3 4 6 8 10 8 7 3 4 2 5 2 2 4 4 5 5 5 5 4 4 4 3 4 4 4 4 4 4 5 4 3 3 3 4 4 4 4 5 5 7 6 8 9 10
8 10 5 2 5 4 6 6 10 1 6 6 5 2 2 1 2 2 3 4 3 2 3 5 5 5 3 4 3 3 4 4 5 4 4 3 3 3 3 3 4 4 4 5 6 5 5 7 6
4 4 3 6 6 7 2 9 8 10 7 8 5 5 5 4 4 2 2 2 3 4 5 5 5 6 5 4 4 5 5 5 4 4 3 3 3 3 3 3 3 3 4 4 4 5 5 8 8
3 8 8 7 7 2 3 11 3 5 6 8 7 6 4 4 3 3 4 3 4 5 5 5 5 5 4 3 4 4 5 5 5 4 3 3 3 3 4 4 4 4 4 4 5 5 4 6 7
Wind_Direction
14 5 60 43 55 61 132 200 207 133 139 164 128 146 187 157 169 205 332 185 142 142 144 139 129 127 126 122 119 115 108 104 108 101 95 95 93 94 89 84 76 92 87 83 83 82 80 79 78
21 357 47 82 87 74 265 232 174 195 153 120 111 105 126 187 131 93 135 159 146 140 140 136 129 130 130 122 115 110 108 114 114 108 102 100 97 98 93 92 92 89 88 86 85 88 87 86 84
78 35 84 90 109 168 196 207 154 130 150 131 106 32 156 181 151 164 166 148 141 140 138 137 132 132 131 126 118 110 114 116 117 104 104 103 100 102 99 90 97 89 89 91 89 92 93 92 87
70 15 48 88 193 224 211 172 145 125 268 244 120 134 244 271 161 185 143 144 139 140 138 139 135 135 133 127 122 118 117 106 115 112 110 106 105 106 98 90 86 92 95 90 90 88 87 88 93
38 56 70 87 227 257 243 151 143 131 157 178 153 188 163 157 101 135 142 146 144 146 141 144 137 136 134 131 129 126 121 111 113 113 111 112 111 110 101 101 100 86 93 94 91 95 94 92 84
48 89 73 166 240 258 114 171 137 130 128 151 106 142 188 32 135 150 146 147 148 153 146 145 137 135 133 133 133 128 123 118 118 117 118 120 117 116 112 106 107 100 96 94 98 95 84 80 79
113 83 151 150 189 138 174 162 151 155 143 236 149 132 243 207 168 150 142 141 145 156 147 145 145 143 135 139 138 133 133 121 120 119 116 112 112 113 110 114 113 104 99 98 99 98 99 91 89
106 94 93 217 187 187 167 176 137 148 211 60 145 201 201 196 148 129 136 148 155 161 154 151 148 150 149 148 135 130 125 124 116 111 110 104 100 98 92 102 108 111 105 103 101 103 98 92 88
146 69 135 203 158 205 149 157 311 221 125 214 197 167 295 138 133 136 154 157 163 170 170 162 159 156 153 150 145 132 121 113 111 111 111 106 118 111 111 111 120 113 115 111 108 103 95 91 84
85 107 199 191 190 207 188 191 170 143 155 192 229 242 91 147 155 163 177 180 178 176 178 170 169 165 157 153 152 146 139 138 135 136 136 131 132 125 115 106 108 123 100 102 104 97 89 85 90
146 163 189 188 206 141 175 199 201 139 221 214 194 187 150 166 175 176 186 192 188 183 182 183 176 168 166 161 156 153 149 144 145 147 146 141 138 133 126 122 114 112 91 98 98 96 82 90 95
117 153 170 143 140 131 160 128 193 226 223 145 208 167 162 178 188 191 193 189 176 179 183 184 186 172 172 160 167 162 158 157 159 162 156 152 149 148 144 139 134 127 123 119 111 100 99 90 83
124 154 155 88 102 93 116 212 224 242 252 253 81 157 181 186 200 203 198 184 177 183 185 188 187 178 172 175 172 168 169 170 167 166 169 164 162 157 149 142 140 131 133 130 121 115 105 96 91
148 98 118 89 103 100 143 224 218 268 313 252 179 194 200 203 197 177 189 194 191 190 187 190 195 193 175 183 186 180 171 172 171 174 177 175 167 163 158 152 144 138 140 135 130 128 121 108 101
107 106 67 53 17 40 139 299 229 242 15 298 236 230 219 220 200 205 207 207 197 198 183 191 194 192 187 187 186 187 184 170 172 182 178 178 175 171 162 159 159 150 134 122 116 106 103 107 102
80 52 111 275 133 335 106 262 276 24 194 248 265 258 250 235 228 222 213 207 199 194 189 188 192 195 195 194 185 187 182 180 183 177 176 183 180 172 161 160 164 153 149 142 136 131 115 113 116
11 171 154 319 204 123 147 255 271 91 54 302 279 260 249 257 247 233 222 211 203 202 195 193 195 200 198 197 192 191 185 187 183 182 184 184 178 176 168 169 158 156 152 153 148 147 143 151 138
178 161 175 223 170 93 182 258 269 272 288 272 276 272 265 255 247 235 220 219 209 205 205 202 195 198 201 194 191 188 187 189 181 186 193 183 184 180 174 171 160 158 155 156 158 155 154 157 154
136 137 168 216 25 193 236 262 275 266 264 273 253 256 249 246 258 238 229 220 211 203 204 205 195 200 194 195 191 191 192 190 183 189 195 188 187 183 181 176 166 170 178 176 162 148 158 155 155
134 135 218 59 45 195 340 285 272 254 238 223 248 246 243 257 269 250 244 234 213 216 212 207 206 198 200 200 199 204 189 202 192 188 196 192 188 188 191 183 184 184 179 177 180 168 158 160 187
151 157 174 183 181 69 339 288 281 305 264 267 247 250 261 258 280 279 258 247 234 221 212 211 210 202 198 202 195 109 111 85 165 190 193 199 194 194 195 196 189 186 188 186 187 187 186 174 194
182 199 152 140 106 233 1 280 303 279 293 276 272 272 271 276 280 293 292 285 254 244 217 215 209 206 200 192 197 192 200 196 204 195 195 195 198 199 201 199 192 191 194 199 198 193 201 171 182
210 124 141 118 110 55 329 347 263 288 279 264 274 294 55 331 317 316 322 311 304 308 240 219 196 196 193 190 200 202 210 215 174 174 191 188 199 209 204 201 197 195 199 206 197 192 202 206 174
151 84 53 57 96 286 204 174 253 199 212 258 154 92 329 331 338 349 350 6 3 5 22 199 189 198 185 190 200 210 211 207 154 169 188 189 177 183 196 197 202 203 208 204 205 200 199 194 210
73 106 41 7 2 229 332 170 243 250 231 226 250 299 307 316 351 13 20 23 17 15 33 68 139 150 162 183 204 218 216 188 179 169 184 166 167 188 202 192 191 195 194 193 189 196 198 202 210
194 160 160 189 193 229 59 234 256 243 269 256 269 285 300 288 135 61 35 36 29 19 24 71 111 122 162 168 171 134 144 148 157 168 157 174 182 176 158 172 181 196 188 190 189 193 202 204 208
203 214 156 103 20 61 219 284 288 259 266 251 233 226 290 294 121 78 59 52 36 31 26 73 108 112 134 142 121 120 120 131 140 133 134 150 138 140 198 166 200 201 202 196 185 193 197 195 203
165 155 87 2 137 230 262 268 231 160 201 204 204 176 225 291 49 57 45 45 56 54 39 52 81 94 87 101 113 132 134 128 122 126 142 151 145 153 161 182 198 200 207 202 197 196 195 193 209
150 178 92 127 158 173 232 255 215 207 194 188 184 164 159 168 171 179 99 80 87 82 69 75 75 92 94 104 112 117 116 116 119 131 151 160 151 183 195 207 215 218 209 217 215 207 191 205 209
354 185 158 166 216 237 149 258 173 201 186 160 170 172 145 137 130 77 63 64 54 66 69 78 81 92 92 109 111 120 124 129 136 145 171 169 171 174 218 190 204 216 225 222 211 215 217 216 224